Time,TemperatureF,DewpointF,PressureIn,WindDirection,WindDirectionDegrees,WindSpeedMPH,WindSpeedGustMPH,Humidity,HourlyPrecipIn,Conditions,Clouds,dailyrainin,SoftwareType,DateUTC
2015-08-28 00:13:00,75.0,75.0,29.99,SE,133,1.0,3.0,99,-99.99,,,-99.99,,2015-08-28 04:13:00,
2015-08-28 01:05:00,74.0,74.0,29.98,NE,36,0.0,0.0,99,-99.99,,,-99.99,,2015-08-28 05:05:00,
2015-08-28 01:13:00,74.0,74.0,29.98,NE,36,0.0,0.0,99,-99.99,,,-99.99,,2015-08-28 05:13:00,
2015-08-28 02:14:00,73.0,73.0,29.98,NE,36,0.0,0.0,99,-99.99,,,-99.99,,2015-08-28 06:14:00,
2015-08-28 03:13:00,73.0,73.0,29.98,NNE,25,1.0,5.0,99,-99.99,,,-99.99,,2015-08-28 07:13:00,
2015-08-28 05:03:00,72.0,72.0,29.96,South,191,1.0,3.0,99,-99.99,,,-99.99,,2015-08-28 09:03:00,
2015-08-28 05:13:00,71.0,71.0,29.96,South,174,4.0,6.0,99,-99.99,,,-99.99,,2015-08-28 09:13:00,
2015-08-28 05:23:00,71.0,71.0,29.96,South,187,4.0,4.0,99,-99.99,,,-99.99,,2015-08-28 09:23:00,
2015-08-28 07:04:00,72.0,72.0,29.98,South,175,0.0,0.0,99,-99.99,,,-99.99,,2015-08-28 11:04:00,
2015-08-28 07:13:00,72.0,72.0,29.98,South,175,0.0,0.0,99,-99.99,,,-99.99,,2015-08-28 11:13:00,
2015-08-28 09:13:00,75.0,75.0,30.02,SE,137,0.0,0.0,99,-99.99,,,-99.99,,2015-08-28 13:13:00,
2015-08-28 09:23:00,75.0,75.0,30.02,SE,137,0.0,0.0,99,-99.99,,,-99.99,,2015-08-28 13:23:00,
2015-08-28 09:34:00,75.0,75.0,30.02,SE,137,0.0,0.0,99,-99.99,,,-99.99,,2015-08-28 13:34:00,
2015-08-28 09:44:00,75.0,75.0,30.02,SE,137,0.0,0.0,99,-99.99,,,-99.99,,2015-08-28 13:44:00,
2015-08-28 09:53:00,78.0,77.0,30.03,SSW,202,5.0,6.0,96,-99.99,,,-99.99,,2015-08-28 13:53:00,
2015-08-28 10:04:00,79.0,77.0,30.03,SSW,205,3.0,7.0,95,-99.99,,,-99.99,,2015-08-28 14:04:00,
2015-08-28 12:13:00,83.0,77.0,30.06,ENE,74,3.0,9.0,82,-99.99,,,-99.99,,2015-08-28 16:13:00,
2015-08-28 12:23:00,83.0,77.0,30.06,ENE,74,3.0,9.0,82,-99.99,,,-99.99,,2015-08-28 16:23:00,
2015-08-28 12:33:00,83.0,77.0,30.06,ENE,74,3.0,9.0,82,-99.99,,,-99.99,,2015-08-28 16:33:00,
2015-08-28 12:44:00,83.0,77.0,30.06,ENE,74,3.0,9.0,82,-99.99,,,-99.99,,2015-08-28 16:44:00,
2015-08-28 12:54:00,83.0,77.0,30.06,ENE,74,3.0,9.0,82,-99.99,,,-99.99,,2015-08-28 16:54:00,
2015-08-28 13:13:00,83.0,77.0,30.05,East,81,10.0,11.0,83,-99.99,,,-99.99,,2015-08-28 17:13:00,
2015-08-28 13:24:00,83.0,77.0,30.04,ESE,123,9.0,13.0,81,-99.99,,,-99.99,,2015-08-28 17:24:00,
2015-08-28 13:34:00,83.0,77.0,30.04,East,95,5.0,14.0,82,-99.99,,,-99.99,,2015-08-28 17:34:00,
2015-08-28 13:44:00,82.0,76.0,30.05,ESE,105,7.0,12.0,82,-99.99,,,-99.99,,2015-08-28 17:44:00,
2015-08-28 13:54:00,83.0,77.0,30.04,East,92,12.0,13.0,82,-99.99,,,-99.99,,2015-08-28 17:54:00,
2015-08-28 14:04:00,82.0,76.0,30.04,ESE,115,9.0,16.0,81,-99.99,,,-99.99,,2015-08-28 18:04:00,
2015-08-28 14:34:00,83.0,77.0,30.04,ENE,71,7.0,16.0,81,-99.99,,,-99.99,,2015-08-28 18:34:00,